Regional Weather Roundup
Issued by NWS

Home | Current Version | Previous Version | Text Only | Print | Product List | Glossary Off
Versions: 1 2 3 4 5 6 7 8 9 10 11 12 13 14 15 16 17 18 19 20 21 22 23 24 25 26 27 28 29 30 31 32 33 34 35 36 37 38 39 40 41 42 43 44 45 46 47 48 49 50

000
ASUS43 KFSD 250810
RWRSD

WEATHER ROUNDUP FOR SOUTH DAKOTA
NATIONAL WEATHER SERVICE SIOUX FALLS SD
200 AM CST THU DEC 25 2014

NOTE: "FAIR" INDICATES FEW OR NO CLOUDS BELOW 12,000 FEET WITH NO
SIGNIFICANT WEATHER AND/OR OBSTRUCTIONS TO VISIBILITY.


SDZ001>005-009-010-012>017-250900-
NORTHWEST AND NORTH CENTRAL SOUTH DAKOTA

CITY           SKY/WX    TMP DP  RH WIND       PRES   REMARKS
BUFFALO          N/A     32  30  92 N10       29.45R WCI  24
FAITH            N/A     32  30  92 N15       29.47R WCI  22
MOBRIDGE       CLOUDY    29  25  85 N8        29.46S WCI  21
$$

SDZ012>016-024>037-041>051-057-063-072>074-250900-
SOUTHWEST AND SOUTH CENTRAL SOUTH DAKOTA

CITY           SKY/WX    TMP DP  RH WIND       PRES   REMARKS
RAPID CTY ARPT CLOUDY    34  26  72 N13       29.46R WCI  25
PIERRE         CLOUDY    28  24  85 CALM      29.47R
CUSTER         CLOUDY    32  20  61 CALM      29.40S
ELLSWORTH AFB  FLURRIES  34  27  76 N12       29.47  WCI  25
PHILIP         CLOUDY    32  25  75 N7        29.46R WCI  26
PINE RIDGE     CLOUDY    32  24  72 W8        29.43R WCI  25
SPEARFISH      LGT SNOW  28  28 100 NE6       29.47S WCI  22
WINNER         FAIR      34  26  72 SW8       29.46S WCI  27
$$

SDZ004>011-016>023-039-040-250900-
NORTHEAST SOUTH DAKOTA

CITY           SKY/WX    TMP DP  RH WIND       PRES   REMARKS
ABERDEEN       CLOUDY    29  25  85 CALM      29.51S
WATERTOWN      MOCLDY    27  24  89 S7        29.50R WCI  19
SISSETON         N/A     31  26  82 SW9       29.50S WCI  23
$$

SDZ017-020-022-023-036>040-048>070-250900-
SOUTHEAST SOUTH DAKOTA

CITY           SKY/WX    TMP DP  RH WIND       PRES   REMARKS
SIOUX FALLS    MOCLDY    26  24  92 S5        29.55R WCI  20
HURON          CLOUDY    25  23  92 S5        29.52R WCI  19
CHAMBERLAIN    CLOUDY    24  21  91 CALM      29.47R
MITCHELL       MOCLDY    27  25  92 S9        29.51S WCI  18
YANKTON        PTCLDY    25  21  86 E3        29.54S
$$

ABBREVIATIONS USED IN REMARKS
   TC - TEMPERATURE IN CELSIUS
  WCI - WIND CHILL INDEX
   HX - HEAT INDEX
  VSB - VISIBILITY




USA.gov is the U.S. government's official web portal to all federal, state and local government web resources and services.